Bedford, MA

4:39 PM EDT on September 27, 2016 (GMT -0400)
Hanscom

Weather History for KBED - August, 2013

Change the Weather History Date:

Monday, August 5, 2013

  Actual Average Record
Temperature  
Mean Temperature 62 °F -  
Max Temperature 75 °F 83 °F 93 °F (1980)
Min Temperature 50 °F 61 °F 44 °F (1972)
Degree Days  
Heating Degree Days 2    
Growing Degree Days 12 (Base 50)    
Moisture  
Dew Point 47 °F    
Average Humidity 61    
Maximum Humidity 93    
Minimum Humidity 31    
Precipitation  
Precipitation 0.00 in - - ()
Sea Level Pressure  
Sea Level Pressure 29.99 in    
Wind  
Wind Speed 7 mph (WNW)    
Max Wind Speed 18 mph    
Max Gust Speed 26 mph    
Visibility 10 miles    
Events      
Averages and records for this station are not official NWS values.
T = Trace of Precipitation, MM = Missing Value Source: NWS Daily Summary

Daily Weather History Graph

Daily Weather History Graph

Search for Another Location

Airport or City:

Trip Planner

Search our weather history database for the weather conditions in past years. The results will help you decide how hot, cold, wet, or windy it might be!

Date:

Astronomy

Aug. 05, 2013 Rise Set
Actual Time 5:41 AM EDT 7:59 PM EDT
Civil Twilight 5:10 AM EDT 8:31 PM EDT
Nautical Twilight 4:31 AM EDT 9:09 PM EDT
Astronomical Twilight 3:48 AM EDT 9:52 PM EDT
Moon 4:34 AM EDT (8/5) 6:57 PM EDT (8/5)
Length of Visible Light 15h 20m
Length of Day
14h 18m
Waning Crescent, 1% of the Moon is Illuminated
Aug 5
Waning Crescent
Aug 6
New
Aug 14
First Quarter
Aug 20
Full
Aug 28
Last Quarter

Hourly Weather History & Observations

Time (EDT) Temp. Dew Point Humidity Pressure Visibility Wind Dir Wind Speed Gust Speed Precip Events Conditions
12:56 AM 57.9 °F 52.0 °F 81% 29.93 in 10.0 mi WSW 5.8 mph - N/A   Clear
1:56 AM 55.0 °F 52.0 °F 89% 29.92 in 10.0 mi WNW 3.5 mph - N/A   Clear
2:56 AM 54.0 °F 52.0 °F 93% 29.92 in 10.0 mi WSW 3.5 mph - N/A   Clear
3:56 AM 53.1 °F 51.1 °F 93% 29.94 in 10.0 mi Calm Calm - N/A   Clear
4:56 AM 53.1 °F 50.0 °F 89% 29.95 in 10.0 mi Calm Calm - N/A   Clear
5:56 AM 50.0 °F 48.0 °F 93% 29.98 in 10.0 mi Calm Calm - N/A   Clear
6:56 AM 55.9 °F 52.0 °F 87% 29.98 in 10.0 mi West 5.8 mph - N/A   Clear
7:56 AM 61.0 °F 51.1 °F 70% 29.99 in 10.0 mi WNW 10.4 mph 18.4 mph N/A   Clear
8:56 AM 64.0 °F 50.0 °F 60% 29.99 in 10.0 mi WNW 13.8 mph - N/A   Partly Cloudy
9:56 AM 66.0 °F 46.0 °F 48% 29.99 in 10.0 mi WNW 18.4 mph 24.2 mph N/A   Clear
10:56 AM 68.0 °F 44.1 °F 42% 29.99 in 10.0 mi WNW 15.0 mph 23.0 mph N/A   Clear
11:56 AM 70.0 °F 43.0 °F 38% 30.00 in 10.0 mi NW 15.0 mph 23.0 mph N/A   Clear
12:56 PM 72.0 °F 44.1 °F 37% 29.98 in 10.0 mi WNW 17.3 mph 20.7 mph N/A   Clear
1:56 PM 73.0 °F 44.1 °F 35% 29.98 in 10.0 mi WNW 11.5 mph 19.6 mph N/A   Clear
2:56 PM 75.0 °F 43.0 °F 32% 29.98 in 10.0 mi WNW 16.1 mph 26.5 mph N/A   Clear
3:56 PM 75.0 °F 42.1 °F 31% 29.97 in 10.0 mi NW 11.5 mph 20.7 mph N/A   Clear
4:56 PM 75.0 °F 42.1 °F 31% 29.97 in 10.0 mi WNW 9.2 mph 19.6 mph N/A   Clear
5:56 PM 73.9 °F 42.1 °F 32% 29.99 in 10.0 mi WNW 8.1 mph - N/A   Clear
6:56 PM 71.1 °F 43.0 °F 36% 30.00 in 10.0 mi North - - N/A   Clear
7:56 PM 64.0 °F 46.0 °F 52% 30.03 in 10.0 mi West 5.8 mph - N/A   Clear
8:56 PM 60.1 °F 46.0 °F 60% 30.05 in 10.0 mi Calm Calm - N/A   Clear
9:56 PM 57.9 °F 46.9 °F 67% 30.07 in 10.0 mi West 3.5 mph - N/A   Clear
10:56 PM 55.9 °F 48.0 °F 75% 30.07 in 10.0 mi Calm Calm - N/A   Clear
11:56 PM 51.1 °F 48.0 °F 89% 30.08 in 10.0 mi SSW 4.6 mph - N/A   Clear